Theta_e
327 328 328 329 330 329 328 327 325 325 324 324 324 324 324 324 324 324 324 324 323 323 322 321 320 319 318 319 319 319 320 322 323 324 326 327 327 327 327 326 325 324 320 320 321 318 318 317 314 311 310 314 317 319 320 321 325 327 331 329 326 331 330 330 326 324 326 321 321 320 321 323 320 319 316 317 318 319 324 327 330 335 336 336 335 334 335 336
326 327 328 328 329 329 329 328 326 325 325 324 324 324 324 324 324 325 325 325 324 324 324 323 321 320 319 319 320 320 320 322 324 325 325 326 326 327 325 322 321 321 319 318 316 314 319 321 314 311 311 313 318 319 320 321 322 327 331 326 329 337 330 323 321 322 322 319 320 320 320 322 321 319 317 318 318 320 324 323 331 341 338 335 335 335 336 335
326 327 328 328 329 329 328 328 327 326 325 324 324 324 325 325 324 325 325 325 324 325 325 324 323 321 320 320 320 321 320 323 325 325 324 324 326 327 324 320 317 318 318 316 312 311 315 317 313 312 312 312 318 320 321 322 321 326 326 323 334 337 323 317 318 320 321 319 320 319 319 320 320 318 317 318 319 319 323 324 332 341 339 338 335 335 336 335
326 326 327 327 329 328 327 328 327 326 326 325 325 324 325 325 325 325 325 325 325 325 325 325 324 323 321 320 321 321 320 324 325 323 323 323 325 327 325 319 315 316 317 315 312 311 311 313 312 312 312 314 317 318 321 322 321 321 321 325 333 326 318 318 317 318 320 319 319 319 319 319 318 317 317 318 318 318 319 321 331 339 339 338 336 334 335 335
326 325 327 328 328 328 327 327 327 326 326 326 325 325 325 325 326 326 325 325 325 325 325 325 325 324 322 320 322 320 321 326 325 321 322 322 325 327 326 320 317 316 315 315 313 311 312 313 315 314 313 314 315 316 320 321 319 319 321 325 324 319 319 318 316 317 318 318 319 319 319 319 317 317 318 318 319 319 318 317 324 335 338 337 335 335 334 334
326 326 326 327 327 327 327 326 326 326 325 325 326 325 325 325 326 326 326 325 325 325 325 325 325 324 322 320 322 321 322 327 326 322 322 322 325 326 326 324 320 315 315 316 312 313 315 316 323 322 313 313 314 315 319 319 318 320 322 322 319 318 319 317 317 317 317 319 319 320 319 317 317 317 317 317 319 319 317 316 320 331 336 335 335 334 334 334
325 326 326 326 326 326 326 326 325 325 324 324 325 325 326 325 326 326 325 325 325 325 325 325 325 323 322 322 323 323 322 325 322 322 323 321 324 324 326 325 318 315 315 315 314 317 320 322 330 324 311 312 313 313 316 317 317 319 321 320 317 317 318 316 316 316 318 320 319 319 318 317 319 318 317 316 317 317 317 316 317 328 335 335 334 334 333 334
325 325 326 326 326 325 325 325 324 323 324 324 324 325 325 325 326 326 325 325 324 324 325 324 325 323 323 323 325 326 325 323 319 320 323 322 323 323 326 324 318 315 314 315 315 318 322 324 327 319 312 312 312 312 313 315 317 318 319 319 317 316 316 316 316 316 318 318 318 318 318 318 318 317 317 316 316 317 320 321 321 328 334 334 335 334 333 333
324 325 326 326 326 325 324 323 323 323 324 324 324 324 325 325 325 325 325 325 324 324 324 324 325 323 324 324 324 327 326 322 318 318 322 322 322 322 325 324 318 315 314 315 314 315 322 323 319 315 312 311 311 312 311 312 316 317 319 318 316 315 314 315 315 316 317 316 316 318 318 316 315 315 316 315 316 318 323 328 328 330 334 335 334 333 332 332
325 325 325 325 324 324 323 322 323 323 323 323 323 324 324 325 325 325 325 325 324 324 324 324 324 324 325 323 324 328 324 321 320 318 321 321 319 320 323 322 317 314 313 314 314 313 320 318 313 313 311 311 311 311 311 312 315 317 318 318 316 315 314 315 315 315 316 316 316 318 317 315 315 315 316 316 315 319 324 328 330 331 333 334 333 332 332 332
324 325 324 323 322 322 323 323 323 322 322 322 323 323 324 325 325 325 324 324 323 323 324 323 323 324 323 322 326 327 321 321 321 317 320 320 319 320 322 320 315 313 313 313 313 313 315 313 311 312 310 311 310 311 312 311 314 317 317 317 315 315 314 315 315 315 316 315 316 319 316 315 315 315 318 318 316 320 325 325 328 331 332 333 332 331 331 332
324 324 323 321 321 322 323 323 323 322 322 322 323 323 324 324 324 324 324 323 322 322 323 322 323 323 322 323 326 325 319 320 320 316 320 320 319 321 321 319 315 313 314 313 313 313 313 312 312 312 311 310 310 311 312 311 313 315 316 317 314 314 315 315 315 315 316 315 316 317 315 316 316 317 320 318 315 318 323 324 324 327 329 331 332 331 331 331
324 323 322 321 321 323 323 323 323 323 323 323 324 324 324 324 324 324 323 322 322 322 322 321 322 321 323 325 321 322 320 317 317 316 320 321 320 320 319 319 316 313 314 314 313 313 313 312 312 313 311 309 309 310 311 311 313 315 315 317 316 314 315 315 315 315 315 315 316 314 315 320 319 317 319 316 314 316 320 323 322 322 323 325 329 331 331 330
323 324 322 321 321 323 323 323 323 323 323 323 324 324 324 323 323 323 322 322 321 320 320 320 320 320 324 324 317 318 318 315 318 318 319 321 320 319 317 316 315 314 314 314 313 313 313 312 312 312 310 309 310 310 311 311 314 316 315 317 318 317 317 316 315 316 315 315 315 312 316 323 321 316 316 314 315 315 318 321 322 322 319 321 326 329 330 329
324 323 322 322 322 323 323 323 324 323 323 323 323 323 323 323 323 322 321 321 320 319 319 318 318 318 321 321 314 314 315 316 321 320 319 320 318 315 313 313 314 314 314 313 313 314 313 312 313 312 310 310 310 310 311 312 315 315 315 318 318 317 319 317 314 316 315 314 314 312 315 321 318 316 314 314 315 315 316 318 320 321 319 319 323 327 330 329
324 322 322 322 323 323 323 323 323 323 323 323 322 322 322 322 322 321 321 320 319 318 316 317 317 317 320 320 314 313 316 318 320 319 317 317 316 314 311 311 313 314 314 312 313 314 312 313 313 312 311 310 310 311 312 313 315 315 317 322 320 317 318 317 315 316 316 314 313 312 315 317 315 314 313 313 315 315 316 316 317 319 318 319 322 326 330 330
323 322 322 322 323 323 323 323 323 323 323 322 322 322 321 322 321 320 320 320 319 315 314 316 316 317 319 314 313 315 315 316 316 316 313 312 314 312 310 311 311 312 313 311 313 313 312 314 313 311 311 311 310 312 312 314 316 316 315 320 322 318 316 317 316 316 316 315 313 313 315 317 315 313 313 315 314 314 316 316 316 317 317 319 324 328 329 331
322 322 322 322 323 322 322 323 322 322 322 321 321 321 321 321 320 320 319 318 317 314 313 314 315 322 321 311 311 316 313 313 314 313 311 311 312 311 311 311 310 311 312 312 314 313 313 314 313 311 312 311 310 311 313 316 319 320 316 316 320 317 315 317 317 316 316 314 314 313 313 317 316 314 314 314 314 315 316 315 315 315 317 318 323 328 328 329
322 322 322 322 322 322 322 322 322 322 321 321 320 320 320 320 319 319 317 315 315 315 316 314 315 323 321 311 311 314 313 313 312 311 312 311 311 311 311 311 312 312 313 314 315 313 313 313 312 311 311 311 311 310 312 317 318 321 319 317 320 319 315 318 318 316 315 314 316 315 313 316 316 314 314 314 314 315 314 315 315 314 316 317 320 324 325 326
322 321 321 321 321 321 321 321 321 321 320 320 319 318 319 319 320 320 316 314 315 316 315 315 316 315 312 311 312 312 313 312 311 311 311 311 310 310 310 311 313 312 312 314 314 312 312 313 313 312 311 310 311 311 311 313 313 315 317 316 318 320 316 317 317 315 314 315 315 315 314 314 314 315 316 315 314 315 314 314 315 315 315 315 318 320 322 323
321 321 321 321 321 321 320 320 320 320 320 319 317 318 318 319 320 320 317 315 315 314 313 313 314 312 310 311 312 312 313 312 312 312 311 311 311 311 311 311 312 311 312 312 312 312 311 312 313 311 310 310 311 312 311 311 310 311 315 315 316 320 317 315 315 314 313 314 315 316 315 314 315 315 315 315 314 314 314 314 314 315 315 315 316 318 319 318
321 320 321 320 321 320 320 320 320 319 318 317 317 317 317 317 317 317 317 317 317 314 312 312 312 312 311 311 311 312 312 313 313 312 311 311 311 312 312 310 311 311 311 311 311 312 311 312 312 310 311 311 311 312 311 311 311 312 316 316 315 318 318 314 315 314 313 313 316 317 315 314 315 314 314 315 314 313 312 313 314 314 316 316 316 317 317 316
320 320 320 320 320 319 319 319 319 318 317 317 317 316 316 315 315 316 316 316 316 312 310 311 311 312 311 311 311 311 311 312 314 313 311 310 312 313 312 310 310 310 310 311 311 312 313 311 310 311 312 311 311 311 311 311 311 313 317 317 316 316 316 315 314 314 313 313 315 317 316 316 315 315 315 315 314 314 313 313 313 314 316 317 317 318 317 317
319 319 319 319 319 319 319 318 318 317 317 316 316 315 316 315 315 316 314 314 314 310 309 310 311 312 312 311 311 311 311 312 313 313 311 310 312 313 312 311 310 311 310 311 311 312 312 312 311 311 311 311 311 311 312 312 312 316 319 320 321 319 317 316 315 314 313 313 314 314 315 317 316 315 316 316 314 313 314 314 313 314 315 316 317 317 317 318
319 319 319 318 318 319 318 318 317 316 316 315 315 315 315 314 315 315 312 313 313 310 310 310 311 312 312 311 311 311 311 312 313 312 310 310 312 312 312 311 310 311 311 310 312 312 312 312 312 311 311 313 313 311 315 315 313 316 320 323 324 320 318 318 317 316 313 313 317 313 312 323 327 318 314 314 314 313 313 314 314 314 314 315 316 317 317 318
318 318 318 318 318 318 317 317 316 316 315 315 315 315 315 314 314 314 314 316 314 311 310 311 312 312 312 312 312 312 312 312 311 311 310 310 311 311 312 312 311 311 311 310 311 313 313 311 312 313 312 315 316 313 318 320 314 313 318 322 322 321 322 321 318 319 318 316 316 312 313 323 325 318 316 314 312 313 313 314 315 313 314 316 315 318 321 320
318 318 318 318 318 317 317 317 315 315 315 315 315 315 315 314 314 314 316 320 317 311 310 311 311 312 312 311 311 312 314 313 311 311 311 311 311 310 311 313 312 310 311 311 312 314 313 311 313 315 314 316 316 313 317 319 315 316 320 323 325 323 324 322 317 322 325 318 315 316 315 316 316 317 321 318 313 313 313 314 316 315 315 317 317 320 324 324
318 318 318 318 317 316 316 316 314 315 315 315 315 315 315 315 314 313 315 319 317 311 310 310 309 311 311 311 310 312 313 313 313 312 310 310 310 310 312 312 312 313 312 312 314 314 313 314 314 315 316 316 315 316 320 319 314 320 323 324 325 323 324 324 319 321 322 317 320 322 315 313 320 327 324 318 315 315 316 315 316 317 317 317 318 319 322 324
318 318 318 317 316 316 315 315 314 315 315 314 315 315 315 314 314 313 314 316 313 310 310 309 309 312 312 311 310 311 311 312 314 312 309 311 310 309 312 311 311 315 314 313 316 317 315 314 315 316 316 317 319 323 327 323 314 319 324 326 327 327 325 321 322 324 317 315 324 326 316 312 322 331 322 313 316 318 317 316 314 316 317 316 317 319 322 325
318 317 317 317 315 314 315 315 314 315 315 314 314 314 314 313 314 315 313 312 311 310 309 309 311 313 312 311 310 311 312 312 312 311 310 311 310 309 311 311 312 319 321 320 320 317 312 310 313 318 316 318 321 320 321 322 318 320 327 327 326 329 328 325 331 329 315 320 332 329 320 312 315 325 324 315 318 319 317 316 315 317 317 317 320 322 326 329
317 317 317 316 314 314 315 314 314 315 314 314 315 313 312 312 315 316 313 311 313 311 309 310 312 312 311 311 311 312 313 312 311 311 311 311 310 310 311 312 314 319 322 321 319 316 313 310 313 316 314 316 320 316 317 321 321 323 329 326 319 323 328 329 330 321 315 327 333 323 318 314 315 323 324 319 319 319 317 316 319 322 322 322 324 324 326 331
316 317 316 314 313 314 314 314 314 314 314 314 314 312 312 313 315 317 314 311 313 311 309 311 312 311 311 310 311 313 314 313 311 311 312 311 311 311 312 314 315 315 316 318 319 317 316 314 314 315 313 314 320 318 316 319 321 323 324 319 317 319 320 322 325 320 320 325 320 315 316 316 317 319 318 318 317 316 318 319 322 325 324 323 323 323 325 329
316 316 315 313 313 313 314 314 314 314 313 314 313 311 313 314 315 317 314 312 315 312 309 311 312 311 311 310 312 313 314 314 311 311 311 311 312 311 313 315 315 314 316 319 319 316 317 318 316 315 313 314 319 317 314 317 318 319 318 315 320 323 315 315 321 320 320 321 315 313 316 318 318 317 316 317 315 315 320 323 324 323 323 323 323 324 325 325
316 315 313 313 313 313 313 314 313 314 313 313 312 310 313 314 315 316 313 312 313 310 309 311 312 311 310 311 312 313 315 314 311 311 312 312 312 311 312 313 313 317 320 319 316 315 318 319 316 316 314 314 317 317 319 322 318 319 322 318 321 326 321 320 322 322 322 322 316 311 315 323 320 316 318 316 312 315 319 321 321 321 322 324 324 324 324 323
315 314 312 313 313 313 313 313 313 314 312 311 311 311 313 314 314 314 313 312 311 309 310 311 311 311 311 312 312 313 317 315 311 312 313 312 311 311 312 311 311 317 319 316 314 315 315 315 317 317 315 315 317 318 321 320 317 320 323 321 321 324 330 327 323 328 329 321 316 314 319 327 319 314 318 315 312 314 315 317 320 321 322 323 323 323 322 323
314 313 312 313 313 312 312 313 313 313 311 310 310 313 313 312 314 314 313 312 310 310 310 311 312 311 312 313 313 313 317 317 313 312 313 312 311 311 312 311 312 314 314 314 315 315 314 314 316 317 315 313 315 317 319 317 317 319 319 323 325 322 328 324 315 318 320 318 321 316 317 322 316 314 318 314 313 313 311 314 316 319 322 323 323 321 321 324
312 312 312 312 313 313 312 312 313 312 311 310 311 314 312 311 316 316 312 311 310 310 311 312 312 311 311 313 313 313 316 316 313 312 313 313 312 312 311 312 313 312 313 314 314 315 318 317 315 316 315 312 313 317 318 315 317 319 318 322 322 317 321 321 314 315 314 318 324 316 314 319 316 318 320 313 313 314 312 313 313 315 320 323 325 322 321 323
312 312 312 312 312 313 312 312 312 312 312 311 312 315 314 314 317 315 312 311 310 310 311 312 312 311 312 312 312 313 315 315 313 313 314 312 314 314 310 311 313 312 313 313 313 317 321 319 314 314 315 314 314 317 317 314 313 317 319 319 319 318 320 319 317 318 315 315 322 317 315 319 317 321 322 315 314 315 312 313 312 314 318 322 325 323 321 322
311 312 312 312 312 312 312 312 311 311 312 311 312 317 320 321 321 317 312 311 311 311 311 312 312 311 312 312 313 314 314 314 313 314 314 312 314 315 311 311 314 313 313 313 316 319 319 319 317 314 314 315 314 315 317 315 312 314 316 314 316 319 321 319 317 321 321 318 322 319 316 321 324 324 325 319 319 316 312 313 312 312 317 321 324 323 322 322
312 313 313 312 312 312 312 311 311 312 312 311 311 317 321 322 321 318 313 311 312 312 312 312 312 311 312 313 313 314 314 314 313 314 315 313 313 314 311 311 314 314 313 313 317 318 314 318 322 315 312 315 316 315 317 316 314 315 315 313 314 315 317 317 317 323 326 322 322 319 318 331 333 322 320 318 317 316 312 312 312 312 316 320 321 322 322 321
312 313 313 312 312 311 311 311 312 312 312 310 310 316 319 319 320 319 316 314 315 317 315 313 312 311 313 313 313 313 314 315 314 314 316 314 311 313 312 312 313 314 314 314 316 318 315 317 320 316 314 316 318 317 316 317 316 315 314 315 316 315 317 317 316 321 322 319 326 323 319 336 338 319 315 316 315 316 313 311 313 312 315 320 320 320 320 320
313 314 313 312 311 311 310 311 312 311 311 311 312 317 319 319 320 321 319 317 320 323 319 314 312 312 313 313 313 314 313 314 314 314 316 315 312 313 314 313 313 313 313 315 316 320 321 320 320 318 317 317 318 315 313 316 319 317 315 318 318 316 317 318 319 323 319 314 324 322 316 333 338 319 315 317 315 317 315 314 315 314 315 320 320 318 318 318
315 315 313 312 311 310 310 312 312 310 312 315 316 318 318 317 320 321 319 317 319 322 319 315 313 312 313 313 313 314 313 313 314 313 315 315 313 316 318 316 315 313 313 314 316 318 320 321 320 318 316 316 317 316 313 314 317 317 317 319 318 315 315 320 325 329 323 315 318 315 312 327 337 323 319 320 316 316 314 312 316 320 320 321 322 320 320 319
314 314 313 312 311 310 310 311 311 310 313 317 318 318 317 317 319 319 317 316 319 323 322 319 316 314 315 314 313 314 313 313 314 313 316 316 313 318 323 319 314 314 313 313 315 315 315 318 320 319 318 318 320 318 315 315 315 318 319 317 315 315 314 317 321 318 318 322 321 317 316 326 334 324 317 317 318 316 315 312 316 324 324 323 323 322 320 320
314 314 314 311 310 312 311 311 311 310 311 316 319 318 318 319 320 319 318 319 323 326 323 320 319 319 319 316 313 314 313 315 317 315 317 319 315 318 321 318 314 314 316 317 314 314 318 320 320 320 318 317 318 317 316 317 316 317 319 316 314 317 315 316 319 314 316 323 320 317 320 322 325 320 312 314 318 317 316 314 314 319 323 324 324 323 321 319
315 314 314 312 311 313 313 312 313 311 310 315 318 318 318 319 319 320 321 319 322 326 325 323 321 319 317 315 314 314 313 318 322 317 317 321 320 317 317 318 318 318 320 320 314 316 323 322 317 317 317 314 316 318 318 319 317 315 318 317 316 319 318 317 320 317 318 322 320 320 322 317 317 317 313 315 319 316 315 315 312 316 322 324 323 322 320 318
315 315 314 313 313 313 313 314 314 311 310 313 316 316 317 318 317 318 319 318 321 325 324 322 320 317 316 315 315 315 313 317 321 318 318 322 319 314 313 317 319 319 319 317 315 319 322 318 316 316 316 314 317 320 319 317 317 315 317 318 317 318 319 318 317 315 316 319 318 320 322 316 313 316 316 316 318 317 316 316 313 314 320 322 321 320 319 316
311 314 313 312 313 314 313 312 313 311 311 313 314 315 316 317 316 317 319 319 320 323 323 319 318 318 318 316 316 315 315 317 318 317 319 320 316 313 313 313 314 316 317 313 313 318 319 316 317 317 315 315 318 320 319 316 316 316 315 316 316 317 318 318 316 315 316 316 314 315 319 317 313 315 317 317 317 317 316 314 311 312 317 320 319 319 319 317
308 311 312 312 313 313 313 312 312 311 311 313 315 315 315 316 315 317 320 320 317 320 321 319 318 319 319 317 317 317 316 316 316 316 318 317 316 316 315 313 313 315 316 314 313 316 316 318 319 316 313 315 318 319 319 317 315 316 316 316 315 315 316 316 315 315 315 316 314 314 316 316 315 317 320 319 317 316 316 316 313 313 318 319 318 319 318 316
305 307 309 312 313 312 312 313 313 312 311 313 315 315 314 314 315 317 319 318 317 318 319 317 319 320 319 318 318 317 315 316 317 317 316 315 316 317 315 314 315 314 314 314 313 312 314 318 320 315 312 315 318 319 319 318 317 316 317 316 315 315 316 315 315 315 315 315 315 315 317 316 316 319 320 320 319 315 316 320 317 314 317 319 318 317 317 316
300 300 302 309 314 312 311 312 312 312 312 312 314 315 314 313 314 316 317 316 316 317 316 316 318 318 318 318 319 317 316 318 318 317 316 315 315 316 317 316 315 313 314 314 313 313 315 317 318 316 315 316 317 318 318 317 316 316 318 318 317 316 315 314 315 314 315 315 315 316 316 314 314 319 320 320 320 318 318 320 317 314 316 319 319 318 317 315
299 299 300 307 314 313 311 311 312 312 312 312 312 313 313 314 314 315 316 316 317 317 317 318 317 317 318 318 318 318 319 320 318 315 315 315 314 317 320 317 312 313 315 315 316 318 318 318 318 318 317 315 314 316 317 316 315 316 317 318 316 315 314 314 315 315 314 314 315 315 314 312 314 318 317 317 319 318 317 318 316 315 316 317 318 318 316 314
Wind_Speed
48 45 46 49 44 43 44 43 44 43 42 41 40 39 37 36 35 34 33 32 30 29 28 26 25 24 23 20 20 20 17 14 11 10 7 7 8 6 5 7 7 6 5 5 6 6 4 5 8 19 19 9 2 2 2 2 1 3 3 2 3 3 4 4 5 6 6 7 7 6 5 9 6 2 2 3 8 7 6 6 4 7 8 8 16 28 31 31
48 48 47 51 47 44 44 42 43 44 43 41 40 38 37 36 35 34 33 31 29 28 27 26 26 25 23 22 19 19 17 11 6 7 11 11 9 8 6 7 7 6 7 8 10 10 6 4 9 15 9 4 3 2 2 2 1 2 3 2 3 4 4 3 5 7 6 8 9 6 6 8 7 6 3 4 6 6 7 4 4 8 8 11 19 27 29 30
48 49 46 48 49 46 45 42 42 43 43 42 40 39 37 36 35 34 33 31 29 28 28 26 25 24 24 23 19 19 16 6 2 7 14 15 11 10 9 9 9 7 9 12 14 12 8 3 8 10 3 3 3 2 2 2 1 2 3 2 5 5 3 5 0 7 7 10 11 7 5 7 6 5 4 5 8 6 7 4 4 7 7 9 13 21 26 26
47 48 46 46 48 48 47 44 43 43 43 42 41 39 37 36 35 34 32 31 30 29 28 27 26 25 24 23 20 19 12 3 4 10 16 19 15 13 13 12 11 9 9 14 14 11 8 5 5 6 1 3 4 2 1 3 2 1 3 4 6 3 1 5 6 3 9 11 12 8 6 6 5 4 4 7 8 4 6 8 9 11 13 12 11 18 22 23
45 47 47 46 46 47 48 46 44 43 43 41 40 39 37 36 34 33 33 31 30 29 29 28 27 25 24 22 19 18 12 3 7 14 18 19 17 17 17 14 12 10 10 13 12 10 7 3 2 2 2 2 3 2 3 5 2 1 3 6 6 2 3 5 6 3 6 10 9 9 7 6 4 3 5 9 7 5 6 9 12 15 16 16 16 18 19 20
45 46 49 47 44 46 48 46 45 44 42 40 40 39 37 36 34 33 33 31 30 29 29 28 27 26 24 22 20 20 14 2 4 16 24 21 17 18 20 18 14 11 10 13 11 8 5 2 2 3 2 3 4 4 5 5 4 2 5 3 3 2 3 2 3 4 3 10 8 8 6 6 6 4 6 7 6 7 6 8 12 16 19 21 20 19 17 17
46 46 50 50 46 47 48 47 45 44 42 41 39 38 37 36 35 33 32 31 30 30 29 28 27 26 25 23 20 15 10 5 1 13 26 24 18 20 24 22 17 13 11 14 12 5 2 4 4 3 3 4 5 5 6 5 4 4 5 0 3 2 1 1 2 4 4 10 7 8 7 7 8 5 4 4 5 6 3 4 13 19 21 22 18 16 17 19
49 48 49 51 51 50 49 47 45 43 43 42 40 39 38 36 35 33 32 31 30 30 29 28 27 26 27 26 16 6 6 6 1 9 21 23 21 24 27 24 20 16 13 15 13 5 2 5 3 3 2 5 5 7 7 6 3 5 5 2 1 1 3 2 3 4 4 7 5 9 7 6 7 4 4 5 5 5 3 7 13 17 18 17 15 15 16 17
50 50 48 50 54 54 51 48 46 45 43 42 42 40 39 37 36 33 32 31 30 30 29 28 27 26 28 22 10 4 8 7 3 10 21 25 26 28 30 27 22 19 16 16 15 7 3 3 3 3 3 6 5 8 8 5 4 6 6 4 3 1 3 2 2 2 3 2 6 9 5 2 3 2 3 6 7 5 5 11 11 13 13 13 12 14 15 15
50 51 48 48 51 52 51 49 48 45 43 42 43 41 40 38 36 34 32 30 30 29 29 29 27 28 26 16 8 5 8 8 6 11 22 28 29 30 30 28 24 22 18 17 17 9 3 4 4 3 5 6 4 7 7 5 5 4 5 5 5 3 2 1 1 1 1 2 4 8 6 2 1 1 3 6 8 6 8 11 10 12 12 11 10 11 15 17
51 52 51 48 48 49 49 49 47 44 44 43 43 43 41 39 37 34 31 30 29 29 28 28 28 29 23 12 8 6 5 9 10 12 22 27 29 30 30 28 25 23 20 17 17 12 6 6 6 5 4 3 5 8 7 5 5 3 8 5 3 3 1 1 3 2 1 1 3 7 5 0 3 1 6 7 8 8 10 11 10 11 10 10 10 9 12 15
53 54 54 50 48 49 48 48 46 45 45 44 44 43 42 40 38 35 31 30 29 27 27 28 30 28 18 7 5 5 4 8 11 14 22 26 27 27 27 27 23 20 19 17 15 12 6 4 8 3 4 4 6 6 4 6 6 3 7 5 1 3 1 3 4 2 1 1 1 5 3 2 1 5 8 7 8 7 10 11 9 10 9 9 10 8 9 14
55 55 55 54 50 49 49 47 46 47 46 45 44 43 41 39 37 35 32 29 28 26 27 29 30 25 16 4 3 8 8 6 11 17 22 25 23 21 21 23 19 13 15 18 17 12 6 7 9 1 5 5 5 4 5 7 2 3 2 4 3 2 2 5 4 2 2 1 2 2 2 5 7 9 8 6 8 8 8 8 8 8 8 8 8 8 9 13
57 56 56 57 54 50 49 48 47 47 45 44 43 42 41 38 36 35 31 29 26 25 28 30 26 20 11 2 1 9 9 7 14 22 24 24 21 20 18 19 18 11 11 20 19 11 6 9 9 3 5 5 6 6 7 6 1 3 2 2 3 3 4 5 3 5 4 1 1 2 3 4 7 8 7 7 8 10 9 8 8 7 7 7 7 8 8 11
57 58 56 55 55 53 50 49 48 47 45 44 43 41 39 38 36 33 30 27 24 25 30 27 18 13 6 1 3 9 8 9 18 26 26 25 24 18 16 18 19 16 14 18 16 10 6 7 7 3 5 5 5 5 5 4 3 1 4 3 1 4 3 5 2 6 5 1 2 3 3 4 6 6 5 7 7 9 10 8 8 8 8 7 7 8 8 9
57 58 56 53 54 54 52 50 47 46 46 44 42 40 39 38 35 32 29 26 24 28 30 20 10 9 4 0 6 10 9 13 20 26 27 27 26 21 19 19 18 20 19 13 12 10 7 6 3 2 6 6 3 3 3 3 4 2 3 3 3 4 3 3 3 3 5 2 0 1 2 3 4 4 4 5 7 8 8 8 8 8 9 8 7 7 7 7
57 59 57 54 52 53 53 49 48 47 46 45 43 41 39 37 34 31 28 26 27 28 23 12 7 6 3 4 8 10 11 13 19 26 24 21 23 26 24 16 13 21 20 12 10 9 6 5 0 2 4 5 3 4 3 3 4 3 1 3 3 4 4 2 3 3 4 5 4 2 2 4 5 3 5 5 7 8 7 8 9 8 8 7 7 7 7 8
57 58 57 55 52 51 52 50 50 49 46 47 45 42 40 37 35 32 29 30 27 22 11 4 6 3 2 8 9 12 17 16 21 26 19 15 22 27 24 15 13 18 15 8 6 6 3 2 2 3 5 6 5 4 4 5 5 3 3 3 2 2 4 4 3 4 5 5 5 4 3 8 7 4 6 6 5 8 8 8 7 7 8 8 8 8 7 9
59 58 57 56 54 52 52 52 51 51 51 49 47 45 41 35 29 27 28 28 19 11 5 7 10 2 3 12 10 13 22 22 21 21 16 18 23 22 21 20 17 13 10 5 2 3 3 2 4 6 7 7 6 6 5 6 5 6 6 5 4 3 3 5 4 4 6 5 5 6 6 9 8 6 6 7 5 7 8 7 6 6 7 7 8 8 8 9
60 59 58 55 56 53 52 54 53 55 55 53 52 41 27 21 15 12 16 17 11 5 4 11 11 1 5 11 12 18 23 19 14 14 17 21 22 17 13 15 13 7 7 7 5 5 4 5 8 9 9 8 7 6 6 8 7 4 4 5 6 5 4 4 3 4 3 5 6 7 8 9 8 7 8 7 5 6 7 7 8 8 7 8 8 9 10 10
63 60 58 55 57 55 54 56 56 59 58 57 52 26 11 17 10 10 15 9 9 5 3 15 13 2 7 15 22 27 18 8 6 11 18 19 20 16 6 8 11 6 8 9 7 7 6 8 10 9 8 7 7 6 6 9 9 5 4 5 6 6 4 3 2 3 0 2 5 5 5 9 8 8 8 6 7 8 10 9 10 10 9 7 9 10 10 8
64 60 58 57 57 56 57 57 58 61 56 52 40 13 12 16 2 10 19 7 8 8 2 17 14 2 7 16 25 29 15 5 5 8 15 15 13 11 5 7 11 8 11 11 7 8 8 8 10 10 8 7 7 6 7 10 9 5 3 5 5 5 3 2 2 1 1 1 3 2 4 9 10 9 7 6 9 9 10 12 11 11 10 8 8 10 9 8
61 61 59 57 57 58 58 58 60 58 49 42 26 11 20 15 9 25 21 6 7 6 2 13 9 2 7 8 12 18 13 8 7 8 15 14 8 7 7 8 10 9 12 12 8 8 6 5 9 9 7 8 9 6 7 9 7 5 2 4 4 4 4 2 2 1 1 1 1 1 2 7 8 7 6 8 10 7 9 12 11 10 11 11 11 10 10 10
59 62 59 58 59 58 58 60 56 47 41 36 20 17 25 19 27 39 18 5 5 2 5 12 5 4 8 5 7 11 9 7 7 10 16 14 7 6 8 9 10 9 10 12 10 7 4 4 8 9 6 8 9 8 7 6 5 5 4 5 4 5 5 3 3 3 2 2 1 4 3 6 6 6 8 8 8 7 8 10 10 9 10 10 10 10 10 11
60 60 59 61 58 59 63 55 43 38 36 28 17 26 30 22 34 34 11 5 4 4 7 11 3 5 8 7 7 7 7 4 3 10 17 15 10 7 6 7 7 8 11 12 10 6 6 5 8 11 8 6 7 8 7 5 5 5 4 6 6 7 5 5 6 5 3 3 3 3 0 6 5 6 10 8 6 8 8 9 12 12 10 8 9 10 10 10
61 59 61 62 59 65 57 32 30 39 30 18 22 34 30 26 34 22 4 5 2 1 8 9 4 9 11 6 5 6 8 3 0 8 16 14 9 7 6 4 2 7 12 10 6 3 4 4 7 10 9 7 6 7 6 5 5 4 5 4 6 7 7 9 8 5 3 3 3 3 5 5 6 4 10 8 7 10 8 9 13 12 9 9 10 9 9 9
61 60 64 62 65 66 38 17 31 37 19 16 31 39 32 30 27 11 3 5 2 4 8 3 2 11 12 6 7 8 6 4 3 5 10 9 5 3 5 6 2 5 8 6 4 2 3 6 6 7 7 8 6 6 6 5 5 4 3 4 8 9 8 9 9 4 3 3 2 2 4 3 5 6 8 5 6 10 8 9 11 9 9 11 10 9 9 9
62 63 64 63 69 55 27 26 35 22 17 28 37 36 29 26 17 3 3 5 2 5 6 1 2 9 8 4 6 5 4 8 8 5 7 7 5 3 4 8 6 8 6 7 7 2 3 7 8 8 6 6 6 6 6 6 5 5 3 5 7 8 8 8 7 3 1 3 1 4 3 2 6 7 6 1 4 8 8 11 12 10 10 10 10 9 8 8
63 64 62 65 59 36 25 36 32 19 27 37 32 25 20 17 10 1 3 5 2 4 5 5 5 7 7 5 5 2 2 5 4 4 5 5 3 2 4 7 6 7 2 4 8 2 2 6 7 8 7 5 5 4 4 5 4 4 3 5 4 4 5 5 5 4 3 2 4 7 4 3 5 6 4 1 2 7 8 9 10 10 10 9 9 9 8 6
65 62 62 64 44 27 29 31 29 29 33 33 27 21 18 13 6 3 5 5 4 3 3 6 5 7 11 10 6 4 4 2 2 5 4 3 1 2 2 2 4 6 2 3 5 1 1 1 1 4 4 4 5 2 2 3 3 3 5 6 6 5 4 4 3 4 3 2 6 7 4 3 3 5 4 4 5 7 7 6 7 8 9 8 7 6 6 6
64 61 64 57 33 30 30 20 28 35 31 33 28 18 14 7 2 4 7 4 5 4 3 6 6 8 15 14 8 5 5 3 5 10 7 3 2 1 1 2 3 4 3 4 3 3 3 1 1 1 1 3 5 2 1 1 2 5 4 4 4 3 4 4 4 2 2 5 6 4 2 4 4 5 5 5 6 6 7 7 8 8 7 6 5 5 5 5
60 60 60 44 28 32 26 21 34 31 27 36 27 12 8 5 1 3 6 5 5 6 6 10 12 12 15 14 9 6 6 3 5 11 10 7 5 5 5 5 4 4 3 4 3 2 2 0 1 1 1 3 5 3 3 4 3 4 4 6 4 0 2 1 2 1 3 5 4 2 1 3 5 7 8 9 9 7 7 8 8 8 7 6 6 6 5 5
58 58 50 34 27 29 25 33 40 27 28 33 17 5 4 6 6 4 6 7 6 8 9 10 13 14 15 11 8 7 6 4 6 8 8 7 7 7 5 5 7 6 4 5 5 4 0 4 2 1 1 1 4 4 2 0 1 3 5 5 5 3 3 2 4 2 3 4 3 2 1 2 4 6 10 13 13 10 7 7 7 9 8 7 7 6 5 5
58 55 41 29 26 26 31 41 39 30 33 26 9 4 4 7 8 5 7 6 3 9 10 11 14 14 14 10 8 8 5 3 7 9 8 8 8 8 7 7 7 5 4 4 4 6 5 2 2 3 1 2 4 3 4 5 4 4 5 5 5 5 4 4 3 3 4 3 3 2 1 3 3 4 8 9 9 4 4 3 4 7 6 6 6 5 5 5
57 49 34 27 24 27 39 43 36 33 30 15 6 6 6 8 6 5 8 6 5 10 10 14 17 13 10 7 7 9 5 3 7 7 7 9 9 9 8 8 9 6 6 6 3 3 6 3 2 1 0 3 4 2 2 6 3 4 3 5 4 5 5 3 3 5 5 1 1 2 3 5 4 6 7 4 4 2 3 3 6 6 5 6 5 5 6 5
50 40 28 23 23 29 42 41 37 34 21 9 8 8 7 7 5 5 7 6 9 13 14 15 12 11 9 4 7 10 3 4 9 7 5 7 7 9 9 7 9 8 7 7 3 2 5 2 4 2 2 1 3 1 1 2 3 2 3 4 5 4 7 4 2 2 4 2 3 2 3 5 3 6 7 1 1 2 2 3 6 7 6 7 6 6 6 6
38 29 21 18 21 29 37 39 38 29 12 6 10 9 5 3 3 6 7 8 12 15 17 12 7 10 10 7 10 12 6 5 8 7 5 6 5 9 11 7 8 10 8 5 3 2 5 1 4 1 1 2 1 3 2 1 2 4 3 5 3 3 4 3 2 2 3 2 4 2 5 5 3 4 5 2 4 7 6 5 5 6 6 6 6 6 6 6
29 22 14 14 21 26 32 38 35 19 4 5 9 7 3 2 3 7 10 12 15 16 14 9 7 8 10 9 9 11 10 8 8 6 6 6 4 8 12 7 6 10 8 5 3 2 5 3 3 1 1 2 2 3 2 0 2 4 3 2 3 3 2 1 3 1 1 3 4 3 4 3 4 5 4 3 8 9 8 7 6 7 7 6 6 6 6 6
24 14 7 14 21 23 31 36 25 9 3 8 8 4 3 3 2 6 14 15 14 14 11 7 7 7 8 10 10 10 10 8 9 6 4 6 4 6 13 8 5 10 9 6 4 4 4 4 2 2 1 1 2 1 5 3 0 1 1 1 1 2 4 3 3 3 3 4 4 3 2 3 6 6 5 8 10 10 10 9 8 9 8 7 7 6 7 6
14 7 5 19 24 24 32 27 12 6 7 8 7 3 2 3 1 4 15 17 10 7 8 9 10 9 8 9 10 10 8 7 10 6 4 7 5 6 11 10 7 9 8 5 4 4 3 3 2 1 2 1 2 3 6 6 4 2 1 1 1 0 1 1 1 2 4 3 3 2 2 5 6 5 7 9 10 10 11 9 9 8 8 7 7 7 7 7
8 5 6 21 28 28 29 16 6 9 7 4 5 3 2 4 3 4 10 13 8 2 4 9 10 9 9 10 11 9 6 7 10 6 3 8 8 4 8 11 10 10 8 5 4 4 2 3 4 2 1 3 3 3 2 5 6 6 5 5 6 3 3 2 3 2 2 3 4 4 3 7 6 3 5 7 7 6 7 9 8 8 8 8 7 8 8 7
5 4 10 26 34 31 22 9 7 8 4 4 5 3 3 4 6 6 4 7 6 2 4 7 7 8 9 10 11 10 9 7 9 8 4 7 9 5 6 11 13 13 11 6 4 4 3 4 4 2 2 4 5 4 2 1 2 4 3 4 5 4 4 5 5 3 1 2 2 3 2 6 6 4 3 5 5 4 3 6 8 7 7 8 7 7 7 6
3 5 15 31 36 27 14 7 8 5 3 4 2 2 3 3 5 6 5 7 6 3 4 5 6 8 7 8 10 11 11 7 8 11 6 5 8 3 3 9 13 13 10 5 4 3 3 4 4 2 1 3 4 4 2 1 2 2 3 3 4 4 4 5 5 3 3 3 2 2 4 6 6 5 4 5 5 5 4 3 6 6 5 6 7 6 6 5
4 5 10 25 33 22 8 7 11 9 7 4 3 2 2 2 4 7 8 9 6 4 6 5 6 7 5 7 10 11 12 6 6 8 4 5 6 1 2 7 12 13 8 7 8 5 2 3 4 4 2 3 3 3 3 2 2 2 2 2 3 3 4 3 1 2 2 4 6 5 5 6 6 5 4 5 5 5 6 3 3 5 5 5 5 5 5 6
7 4 4 12 20 13 4 4 8 9 8 6 6 7 3 2 1 3 8 7 3 4 6 3 5 6 6 8 9 8 10 6 4 6 4 4 3 4 3 4 11 11 6 6 10 7 4 5 4 5 6 6 6 5 3 4 2 1 1 2 4 5 6 4 2 2 4 4 5 5 5 6 7 6 4 5 4 4 6 5 2 3 5 5 5 5 5 6
7 5 3 6 7 6 3 1 2 6 9 8 5 6 6 4 1 2 5 5 1 4 5 2 5 7 7 11 10 9 11 4 3 6 6 5 2 2 1 1 4 4 1 5 11 7 3 4 5 8 10 10 8 4 5 8 6 5 7 7 7 7 8 7 3 4 6 3 3 6 6 7 10 7 5 6 5 5 6 4 4 4 5 5 6 6 5 6
3 5 8 8 6 7 5 4 4 7 11 10 6 6 8 8 4 1 3 1 2 5 4 2 6 9 10 13 11 10 11 4 4 7 7 4 2 1 2 4 4 3 3 5 9 6 4 4 6 9 11 8 7 6 9 12 11 12 13 11 10 9 9 9 7 9 7 4 6 9 7 9 13 9 7 8 7 6 6 7 7 6 6 6 6 6 6 6
1 4 7 5 4 8 10 10 11 11 12 9 5 6 10 10 9 6 2 2 2 4 3 1 7 11 14 14 10 8 9 5 4 7 6 3 4 3 4 4 3 4 3 4 5 3 5 6 6 7 8 6 5 7 10 12 11 12 14 14 13 11 11 12 13 13 9 7 11 13 12 13 12 7 7 9 8 8 8 8 7 6 6 6 6 7 7 7
1 1 2 1 1 5 8 7 7 9 12 9 3 6 12 14 13 8 3 4 3 3 3 6 9 9 11 13 10 8 11 9 6 5 4 4 5 4 3 2 1 3 5 4 3 1 4 5 4 7 7 5 4 5 8 10 9 8 11 14 14 13 15 16 16 17 15 13 15 15 14 14 10 7 8 8 7 6 4 4 5 7 7 7 8 8 8 8
1 1 1 2 2 4 8 8 7 8 9 8 5 6 10 14 14 8 3 7 10 6 4 9 11 8 9 12 11 10 13 13 10 7 7 7 5 4 4 4 3 2 4 3 2 1 1 3 3 6 5 4 1 2 4 7 8 7 9 10 11 12 14 16 17 16 13 13 14 11 10 11 7 7 8 7 2 3 4 5 7 8 7 8 9 8 9 10
1 1 1 3 2 5 9 8 8 9 8 8 7 7 9 13 13 9 2 2 8 9 7 11 12 8 6 9 10 12 12 12 13 14 14 14 11 7 4 5 7 6 3 2 3 2 2 2 1 5 5 3 2 2 3 3 2 4 8 10 12 13 13 14 13 12 10 11 12 10 9 12 8 6 7 6 3 6 7 8 7 6 7 9 10 10 11 11
1 1 0 2 2 3 8 9 8 9 9 10 10 7 8 10 10 9 4 2 2 5 6 11 13 8 6 9 11 10 10 10 11 11 10 10 9 6 4 7 12 12 8 5 3 2 5 5 2 4 6 3 3 1 3 5 2 6 10 12 15 14 12 10 9 11 13 12 11 11 12 13 7 6 9 8 6 8 10 8 7 7 8 10 11 12 12 12
Wind_Direction
210 207 205 202 196 190 190 189 189 189 187 186 184 184 184 183 183 184 185 187 187 183 184 186 187 190 190 191 192 190 190 181 178 188 193 200 207 206 176 179 184 179 159 145 145 127 55 25 341 337 346 347 326 301 280 218 106 67 96 158 253 228 206 220 198 189 158 155 180 194 166 136 142 149 140 64 77 98 83 61 52 47 47 79 123 141 148 151
209 206 204 201 195 190 188 188 189 187 186 186 184 184 184 184 184 184 184 186 186 182 181 182 185 188 187 189 187 187 187 174 170 197 209 209 214 216 181 162 163 164 157 121 99 93 69 33 344 334 341 347 307 307 303 260 144 119 135 169 233 219 226 254 182 168 146 151 165 177 165 147 160 163 138 119 126 122 95 59 63 78 69 89 117 135 144 151
208 205 202 197 193 191 189 188 189 187 186 185 184 184 183 184 184 183 184 185 183 180 179 179 182 183 186 187 182 188 185 157 193 226 225 217 218 218 184 155 144 141 150 124 96 86 77 41 329 317 325 348 293 273 316 280 240 178 136 172 243 233 266 332 257 177 160 147 150 167 165 153 175 162 134 142 148 148 140 144 112 117 131 122 127 139 146 153
208 203 200 197 194 192 192 189 188 187 186 183 182 182 182 182 182 182 184 184 182 179 178 178 179 180 184 184 183 185 165 61 256 224 228 220 221 218 186 159 138 127 140 125 102 86 71 34 312 286 323 342 286 265 244 243 236 186 150 189 248 245 241 316 310 223 156 145 152 158 136 150 183 156 145 141 141 191 190 177 164 158 158 148 148 148 151 156
205 203 200 197 193 189 190 189 188 188 185 183 181 180 180 181 181 181 182 184 182 179 178 178 179 180 182 182 184 171 136 53 235 213 223 219 221 219 191 166 144 131 130 124 108 82 70 41 308 320 17 308 292 306 238 231 183 219 219 198 240 228 177 263 298 294 148 136 140 138 136 157 156 144 162 146 154 216 208 192 175 162 162 159 158 156 156 160
202 202 199 197 194 188 189 189 188 188 185 182 179 178 179 179 179 179 182 183 181 179 178 179 179 180 180 180 177 164 151 184 209 197 211 217 220 210 191 175 158 147 128 122 112 80 73 64 35 49 15 298 288 273 253 250 157 223 266 194 282 267 164 247 314 300 155 131 140 144 151 142 121 166 180 149 179 213 211 204 174 161 164 160 156 157 160 166
199 200 198 195 193 189 187 186 186 186 184 181 178 178 178 178 177 178 181 181 180 178 177 177 177 177 175 167 161 160 175 224 234 184 196 208 210 192 185 176 163 158 138 124 113 92 102 84 66 59 347 293 281 262 257 266 170 194 260 246 340 351 148 272 356 316 135 135 157 141 136 139 137 171 168 145 199 212 219 181 158 156 157 155 156 164 169 173
196 199 199 195 192 188 184 183 183 183 181 179 177 177 178 177 177 177 179 179 178 177 176 176 174 174 169 158 149 153 196 216 227 165 173 182 186 178 179 172 164 163 146 134 128 136 156 93 85 73 341 280 302 306 290 284 219 199 231 204 81 4 315 312 22 3 88 120 135 117 122 159 162 160 153 174 203 207 150 110 135 145 148 156 164 171 173 176
194 196 196 192 188 184 183 182 182 180 178 177 175 176 177 176 176 176 178 178 177 177 176 175 172 170 165 156 140 152 197 199 150 153 161 167 173 174 175 170 167 163 146 140 139 150 170 116 118 97 327 290 299 305 299 287 249 214 201 163 129 111 298 314 36 12 49 95 121 112 109 150 191 162 159 187 194 201 131 114 129 140 151 165 171 175 176 178
190 189 189 187 181 178 179 180 180 178 177 177 175 175 175 174 174 175 176 176 175 176 175 174 170 164 160 154 147 173 202 198 173 164 168 170 169 171 173 169 166 162 147 137 139 143 129 116 79 36 313 291 267 283 291 265 247 210 159 129 124 137 249 258 152 255 6 29 112 120 133 151 319 119 186 207 189 173 126 128 141 146 161 172 173 181 180 182
187 185 184 183 180 178 178 178 178 178 177 178 176 174 173 172 171 172 174 174 172 174 174 171 165 162 160 159 170 188 189 182 188 178 173 173 169 169 171 167 162 159 147 132 141 144 119 111 66 22 290 292 307 301 293 286 294 176 130 98 102 119 262 186 156 217 38 54 113 112 121 57 17 116 214 208 183 164 136 144 156 156 168 173 176 184 184 189
184 182 182 181 181 180 178 176 175 176 176 176 174 172 170 168 168 169 171 172 170 172 171 164 161 161 156 158 199 193 158 168 188 184 176 174 171 169 167 165 162 160 152 134 135 142 128 90 77 77 259 314 323 304 290 315 321 189 135 115 110 76 315 205 172 208 115 153 213 112 95 305 253 222 229 191 169 160 140 154 167 168 173 173 177 180 187 194
182 179 181 181 181 180 177 174 173 173 172 171 170 167 165 164 165 167 168 169 171 171 166 159 160 160 152 153 240 185 180 186 185 180 174 174 172 163 160 165 163 160 159 142 129 133 123 55 64 125 269 299 291 282 300 317 305 210 139 126 137 62 279 231 189 159 130 196 300 130 178 264 236 232 232 178 157 147 144 169 177 180 182 178 180 178 189 193
181 177 178 179 178 177 174 173 172 170 168 166 165 163 161 161 162 163 164 165 168 167 162 157 156 156 155 150 147 174 197 212 185 175 170 171 167 157 157 163 165 161 149 140 134 137 127 57 39 316 270 249 256 291 306 310 292 197 191 146 133 155 250 262 198 139 148 233 29 123 201 253 254 248 226 186 166 153 163 186 185 190 194 186 185 182 189 193
179 175 175 176 173 172 172 172 171 167 165 163 161 159 157 157 157 158 159 160 160 162 159 154 147 143 139 340 155 166 181 184 180 176 173 170 159 157 163 162 166 164 143 138 145 149 127 69 36 329 281 251 250 288 295 300 312 209 182 233 206 172 249 294 231 152 154 248 45 132 211 258 270 263 215 185 173 164 174 192 191 194 199 195 192 187 189 196
177 173 174 175 171 169 169 169 167 163 161 158 157 156 153 152 152 151 154 154 152 156 154 150 146 138 124 103 156 158 163 175 183 178 174 172 162 155 153 146 144 150 142 134 153 152 100 67 41 293 279 273 247 234 281 309 295 286 155 202 209 173 224 286 271 201 151 143 318 168 196 248 266 245 205 182 169 170 179 195 198 196 200 197 192 191 189 191
173 171 172 173 170 167 167 166 163 160 157 153 150 148 146 146 146 144 145 147 147 150 149 149 148 125 89 131 149 169 178 178 181 176 173 177 168 150 141 131 119 132 130 116 139 146 83 57 202 274 262 252 241 195 229 264 251 280 121 179 224 178 178 202 273 269 140 145 208 196 195 249 268 224 201 200 171 169 185 200 204 202 204 200 190 189 189 189
171 169 170 170 168 165 164 163 159 156 153 149 144 142 140 138 138 136 134 136 135 135 134 146 149 129 206 172 169 182 180 171 171 173 172 172 165 150 139 134 124 121 118 103 117 135 88 68 199 261 251 229 225 192 197 222 201 190 166 184 242 178 174 196 227 224 154 156 203 180 224 260 270 251 218 224 187 178 200 207 208 208 205 203 193 191 193 194
170 168 168 167 165 163 162 160 155 151 149 143 139 135 130 126 128 128 133 138 136 133 157 190 179 175 176 175 170 162 170 167 162 168 165 158 156 145 134 132 128 121 126 142 138 135 131 146 200 221 230 223 219 204 200 218 195 173 176 180 190 180 207 215 234 240 164 159 208 190 209 239 243 241 233 235 208 194 215 219 220 222 211 205 200 199 200 201
168 166 166 164 162 161 159 157 153 149 146 140 135 131 124 127 128 130 147 159 174 173 137 171 188 5 102 150 137 133 155 159 151 165 165 158 148 130 122 127 124 121 136 149 158 169 173 190 209 212 216 224 226 210 202 226 237 217 184 187 192 189 223 234 252 276 153 153 217 204 212 239 239 238 237 223 200 208 223 222 224 226 214 204 203 206 206 210
165 163 164 162 160 159 158 155 152 150 149 144 141 138 145 153 149 167 166 171 208 243 71 159 186 284 123 143 139 136 144 144 134 165 164 158 146 133 138 141 132 140 159 156 157 179 201 207 213 216 217 231 233 216 215 235 247 255 220 204 207 197 215 254 244 254 139 158 230 213 220 255 251 241 241 201 182 212 214 207 218 221 219 210 202 209 211 215
161 161 161 160 159 158 157 154 152 152 150 149 151 150 159 159 104 154 152 132 207 253 323 166 180 331 125 144 150 147 140 119 122 165 168 164 159 154 177 163 147 153 169 170 164 180 209 217 211 216 219 234 250 233 230 244 242 243 214 186 214 206 184 298 321 247 106 159 257 245 214 251 255 247 244 200 194 216 210 205 211 207 210 213 205 211 213 213
158 159 159 160 159 158 157 155 153 152 153 158 164 155 152 155 114 133 135 87 174 224 248 169 172 89 133 148 165 154 142 143 147 182 181 170 171 167 159 160 161 160 168 182 183 178 201 211 201 212 213 219 246 255 241 248 245 238 182 159 214 202 166 240 271 197 136 137 201 88 206 258 267 268 261 222 210 216 212 214 219 207 203 207 206 206 202 201
157 158 159 159 158 158 156 154 153 154 160 164 164 151 150 145 136 138 129 72 142 202 167 169 162 131 155 155 168 160 144 143 146 176 182 169 159 157 156 162 163 166 175 185 184 180 205 190 187 211 219 207 230 257 252 240 243 242 197 165 193 193 184 197 167 138 36 352 73 79 7 290 254 245 256 240 219 216 215 216 228 231 218 212 213 210 204 200
158 157 158 158 157 156 153 151 155 159 162 164 157 152 150 144 146 143 115 104 129 17 149 175 197 166 166 148 157 154 127 120 133 169 178 173 160 146 162 173 164 174 179 179 178 182 214 190 173 206 222 204 217 244 243 212 223 257 227 192 187 182 168 131 126 109 64 313 272 122 28 288 268 236 241 241 226 223 217 210 221 228 223 218 220 217 213 211
157 156 157 158 156 154 152 152 162 160 159 169 159 153 153 153 160 162 79 92 146 69 156 182 194 168 168 157 153 125 121 155 358 158 170 176 169 142 160 187 161 175 173 176 188 178 199 173 157 195 208 198 218 242 230 185 182 243 246 200 163 147 136 137 143 123 130 228 267 144 173 260 306 272 243 239 231 233 224 214 224 224 215 215 216 213 211 209
156 156 156 156 154 154 153 152 161 159 161 169 154 153 163 166 174 196 35 85 169 164 164 205 185 165 171 175 157 134 149 175 92 147 175 177 173 118 160 184 151 174 167 158 199 201 148 155 165 184 187 191 208 236 230 173 155 233 249 141 131 134 145 157 154 143 176 189 340 40 144 230 286 267 254 232 217 244 243 229 235 228 217 220 216 211 206 200
156 156 156 156 155 157 153 148 156 161 162 158 151 155 167 172 180 216 100 141 171 143 156 203 150 155 155 156 152 134 170 157 132 183 196 174 173 75 153 191 174 175 178 160 184 233 125 161 182 174 168 193 200 225 226 170 167 238 224 134 136 146 153 156 147 134 112 114 299 287 144 183 268 272 288 268 199 248 245 229 234 227 220 221 216 213 210 207
156 157 157 156 156 156 150 150 155 156 157 157 154 154 156 163 173 119 130 176 143 124 144 139 148 156 142 144 160 116 108 144 145 173 163 164 194 66 153 196 173 157 183 167 170 206 179 176 180 166 169 192 186 213 219 178 198 222 145 95 70 81 103 118 134 120 75 102 235 245 186 179 268 278 294 347 209 237 235 232 234 227 226 222 218 218 208 197
157 158 158 156 155 149 144 149 157 157 158 162 158 146 137 145 155 142 184 187 139 144 150 145 169 164 149 153 169 153 125 110 97 123 130 162 168 18 134 156 117 124 51 67 135 184 275 193 165 154 170 170 150 166 207 202 194 138 92 65 40 27 49 59 72 96 92 259 248 242 205 176 270 278 240 215 218 213 213 237 242 232 233 229 218 207 186 172
158 158 158 157 155 148 142 149 164 163 164 165 156 140 138 143 86 145 176 167 119 134 142 151 160 150 157 162 165 158 123 87 130 143 157 175 134 27 152 116 82 103 76 65 72 355 8 91 183 152 172 136 112 89 9 358 119 100 91 98 74 0 17 25 3 63 163 247 262 263 216 163 224 263 244 244 258 225 200 217 231 223 216 207 191 179 175 173
158 157 158 156 152 151 149 157 163 162 163 161 152 145 149 138 126 174 160 142 149 178 175 166 164 162 165 160 148 147 121 107 168 161 159 161 168 187 179 175 165 138 155 159 126 26 23 308 228 31 294 150 124 115 24 9 43 88 115 127 125 28 34 29 264 223 214 245 271 295 297 195 229 256 260 270 276 254 219 213 211 195 181 174 170 172 178 175
156 155 155 151 147 153 154 158 162 159 152 152 148 160 150 143 179 189 152 166 182 172 164 161 160 156 155 149 148 151 123 133 179 168 156 149 164 196 215 209 182 157 175 175 145 137 74 304 294 81 325 189 153 158 154 226 128 132 149 147 152 147 110 206 241 265 247 255 273 280 285 252 266 270 254 253 255 242 229 225 194 168 166 172 174 174 172 175
156 154 150 143 141 153 159 161 165 158 146 146 152 166 147 161 176 147 153 188 164 140 145 144 143 145 152 157 162 156 112 113 170 160 157 155 166 196 217 217 195 145 121 150 164 168 173 253 235 165 188 176 176 182 157 156 167 186 174 146 158 164 151 192 213 208 222 258 285 285 257 193 203 259 250 254 267 237 195 205 154 145 158 158 157 161 163 177
156 152 145 139 136 150 162 165 164 154 148 150 158 160 170 180 180 152 162 177 136 137 139 139 140 144 157 156 159 167 140 131 172 159 165 178 180 189 192 200 196 158 139 169 192 163 159 205 274 288 9 146 174 240 114 127 167 223 157 124 179 186 148 151 183 181 174 167 267 242 233 209 205 270 276 286 330 54 119 124 124 139 156 143 148 173 174 184
153 150 145 142 138 149 163 166 161 156 157 158 155 176 195 183 172 156 158 154 144 141 133 137 145 148 156 152 166 183 172 133 166 168 182 189 187 192 189 192 192 176 163 167 168 147 155 203 317 349 13 122 167 194 58 125 186 187 136 176 214 168 119 121 198 161 108 151 245 205 238 284 300 286 291 318 163 194 171 157 150 164 169 155 168 187 186 191
150 149 148 147 146 154 163 165 161 160 167 174 172 184 183 162 155 136 131 132 137 138 137 144 163 161 162 163 172 182 164 133 167 174 176 180 191 197 191 197 195 186 183 165 164 189 152 140 318 345 166 265 171 119 70 17 137 125 171 212 200 126 104 113 168 13 62 197 265 209 212 269 275 263 316 358 211 231 225 206 195 194 187 179 184 187 189 190
143 143 145 150 154 157 161 163 163 159 162 193 191 184 139 141 173 138 131 134 138 147 150 153 167 171 170 164 167 176 162 155 177 174 165 181 215 193 180 194 201 187 196 181 171 203 144 126 307 300 183 279 7 105 143 289 114 139 191 203 122 156 211 140 157 188 178 219 271 277 236 247 213 224 290 262 225 229 227 217 212 210 202 195 193 192 190 179
136 139 142 156 158 157 157 160 160 150 178 195 192 196 154 155 199 146 140 140 143 153 158 159 161 163 169 162 156 167 170 167 171 168 172 185 226 203 177 181 193 187 191 174 168 203 159 141 245 281 250 247 16 145 185 188 93 69 6 359 54 159 184 186 173 162 165 204 244 279 293 259 229 218 213 221 223 216 212 212 210 208 202 195 190 186 186 177
138 141 145 156 158 156 153 152 150 165 203 193 179 208 171 127 349 154 147 145 143 155 163 165 161 153 156 157 153 161 165 157 162 175 191 173 188 217 187 176 174 178 175 155 163 188 156 138 174 289 327 163 185 221 186 171 169 142 74 171 233 215 145 200 221 138 131 167 204 222 273 266 250 214 199 222 232 216 206 205 208 210 204 199 190 184 186 181
143 134 145 156 156 153 148 144 167 190 195 173 161 209 186 135 123 140 146 141 133 120 144 154 162 154 148 155 160 163 152 149 167 178 184 177 182 211 197 179 166 160 159 165 188 183 146 127 141 140 190 197 237 265 198 180 181 171 175 185 190 187 138 168 242 236 136 171 183 172 238 270 256 214 212 241 251 234 210 199 203 208 203 202 197 193 192 182
147 140 148 157 158 156 152 158 190 182 178 173 170 167 155 141 132 135 134 130 124 83 105 138 157 152 152 161 160 161 155 154 177 180 179 192 186 190 201 178 162 161 165 167 182 168 123 104 115 134 202 215 255 279 269 225 157 143 192 193 171 166 144 162 210 232 225 225 157 132 221 273 264 240 243 266 276 280 253 207 204 206 201 200 200 200 198 185
156 122 134 152 160 162 160 169 170 172 223 212 163 107 136 126 129 144 154 148 144 134 129 145 159 155 163 163 152 161 165 159 183 185 168 175 183 195 219 174 157 159 165 157 162 158 111 102 105 79 318 306 305 306 311 311 113 138 226 196 160 182 177 170 183 172 184 210 160 160 244 266 276 278 276 285 293 299 299 237 195 194 201 202 197 196 190 175
131 94 115 151 165 173 180 180 173 178 202 186 112 138 158 102 135 151 156 157 154 147 141 147 164 158 154 152 152 168 173 163 188 189 154 156 183 331 355 175 164 161 172 181 176 174 160 141 120 109 87 358 335 309 289 246 188 203 236 193 177 187 153 146 153 120 222 224 167 172 235 251 272 301 307 308 320 305 287 275 184 175 186 195 187 182 177 164
127 91 64 150 168 185 208 196 179 172 176 159 142 161 145 56 83 141 141 148 139 132 137 149 161 137 120 138 144 165 176 163 164 181 160 149 176 355 0 195 179 172 191 190 168 162 169 166 140 138 164 188 201 215 207 180 183 256 233 173 182 178 158 165 176 178 238 240 157 172 230 252 278 308 305 296 306 278 265 270 249 199 187 184 175 172 173 168
138 122 115 141 177 219 259 293 172 170 176 166 152 166 148 122 346 20 111 133 103 112 113 126 144 120 127 147 143 167 186 162 103 160 161 144 161 310 325 154 160 162 151 157 156 142 133 175 175 175 193 198 188 178 148 137 148 206 212 196 190 189 178 169 157 191 214 204 184 219 227 243 265 271 266 269 254 237 246 244 232 220 202 193 183 176 176 171
137 150 161 155 170 200 225 251 208 187 184 173 163 172 154 137 145 87 78 121 171 127 78 48 154 150 158 158 149 170 181 145 101 150 151 138 145 321 17 74 77 27 19 155 164 133 119 199 200 192 210 206 169 163 160 154 171 197 203 202 200 194 180 176 196 212 197 177 234 242 222 231 249 240 229 247 241 231 237 224 214 210 200 195 183 171 171 168
133 159 175 162 158 186 199 207 199 187 181 175 164 157 150 147 160 169 123 65 152 153 93 81 184 174 164 158 149 157 163 143 141 157 142 127 127 72 26 42 44 352 19 145 172 119 139 199 202 191 217 217 171 176 174 170 185 196 197 201 201 192 183 190 212 219 200 195 234 238 223 228 240 227 216 228 223 220 223 212 200 191 188 186 177 173 176 177
61 91 174 101 29 177 169 163 163 169 174 170 157 162 163 165 167 165 118 107 157 204 139 151 189 181 158 154 143 147 168 168 170 176 149 133 137 117 88 89 335 355 53 120 174 122 156 198 184 172 205 224 194 185 183 186 197 200 202 206 201 193 192 198 212 219 212 214 229 234 237 242 238 216 225 234 224 220 208 162 164 180 186 183 178 182 186 187
72 27 147 102 55 143 137 125 133 158 177 173 172 182 174 171 169 160 138 155 169 193 174 162 176 170 155 157 150 165 185 173 158 167 152 138 152 161 153 168 177 60 63 125 173 100 175 210 164 146 183 247 306 103 162 190 203 208 216 217 204 197 203 209 215 218 215 224 236 245 260 264 243 206 235 258 228 144 142 162 188 193 183 176 180 191 195 196
59 291 175 130 101 138 150 155 159 164 179 187 190 188 181 184 176 154 119 183 168 174 177 162 158 146 144 163 167 178 183 163 156 168 163 158 171 179 171 167 152 136 122 154 153 122 147 192 120 120 164 237 337 67 134 126 124 217 234 224 205 197 204 212 216 214 207 217 235 246 253 256 238 197 229 247 160 161 192 199 202 199 184 179 184 195 202 202
23 311 151 114 79 146 162 162 167 177 188 193 191 181 173 179 169 144 126 360 112 142 147 147 146 139 151 179 191 187 173 157 156 162 156 151 153 144 136 152 153 153 158 156 147 139 143 146 145 147 169 229 327 74 128 90 86 246 240 216 204 205 208 211 219 222 213 208 218 228 233 240 228 193 218 221 183 198 214 202 193 199 195 193 193 198 205 206